IRIDIUM 11 [P]

Last updated on Wed Oct 10 2018 00:08:07 GMT+0000 (Coordinated Universal Time)

1 25578U 98074B 18282.79073044 .02647832 -89289-6 77243-3 0 9991 2 25578 86.4240 54.8352 0383018 339.1532 19.4452 15.50933344 46269

Satellite not in orbit